003  
NZUS01 KABQ 180301  
RWRABQ  
NEW MEXICO REGIONAL WEATHER ROUNDUP  
NATIONAL WEATHER SERVICE ALBUQUERQUE NM  
800 PM MST SAT FEB 17 2018  
 
-----NORTHERN NEW MEXICO AND NEARBY AREAS-----  
 
 
CITY SKY/WX TMP DP RH WIND PRES REMARKS
 
ALBUQUERQUE MOCLDY 44 29 55 SE8 30.16S  
BELEN FAIR 44 32 63 S6 30.16F  
SOCORRO FAIR 46 38 74 S7 30.15F  
 
CITY SKY/WX TMP DP RH WIND PRES REMARKS
 
SANTA FE MOCLDY 41 22 46 E5 30.17R  
LOS ALAMOS MOCLDY 44 17 33 CALM 30.18S  
TAOS MOCLDY 36 17 46 S3 30.19S  
ANGEL FIRE FAIR 29 17 61 S6 30.18S WCI 22  
FARMINGTON PTCLDY 35 10 35 NE3 30.13S  
GRANTS MOCLDY 41 23 49 SE5 30.18F  
GALLUP MOCLDY 39 27 62 CALM 30.17F  
FLAGSTAFF PTCLDY 33 24 69 CALM 30.18S  
DURANGO PTCLDY 34 16 47 N5 30.16S WCI 30  
 
CITY SKY/WX TMP DP RH WIND PRES REMARKS
 
ALAMOSA PTCLDY 34 13 41 S15 30.09S WCI 24  
DENVER PTCLDY 41 16 36 S13 29.86F  
CLAYTON CLEAR 36 11 35 S16 30.09F  
RATON PTCLDY 36 14 40 W8 30.10F  
LAS VEGAS PTCLDY 38 25 59 S21 30.15S  
CLINES CORNERS PTCLDY 33 20 58 W8 30.20F WCI 26  
SANTA ROSA FAIR 43 28 55 S6 30.15S  
TUCUMCARI PTCLDY 42 23 46 S5 30.12F  
CLOVIS (AFB) PTCLDY 39 38 96 SE8 30.18F  
CLOVIS NOT AVBL  
AMARILLO CLOUDY 39 18 42 S9 30.18S  
 
-----SOUTHERN NEW MEXICO AND NEARBY AREAS-----  
 
 
CITY SKY/WX TMP DP RH WIND PRES REMARKS
 
T OR C PTCLDY 53 41 63 CALM 30.16F  
DEMING MOCLDY 52 47 83 CALM 30.17R  
TUCSON MOCLDY 61 53 75 W3 30.09S  
EL PASO CLOUDY 55 47 74 E3 30.15S  
LAS CRUCES MOCLDY 50 48 91 SE5 30.18S  
 
CITY SKY/WX TMP DP RH WIND PRES REMARKS
 
ALAMOGORDO NOT AVBL  
ROSWELL MOCLDY 49 38 65 S5 30.13S  
CARLSBAD PTCLDY 50 44 80 SW6 30.14R  
HOBBS CLOUDY 46 28 49 SE12 30.18S  
 
CLICK HERE TO GO TO PREVIOUS BULLETINS.

The Nexlab NM Page Main Text Page